{"data":{"norad_id":69517,"epoch":"2026-09-19T21:59:34.335168Z","epoch_age_seconds":75921,"freshness":"FRESH","line1":"1 69517U 26133K   26262.91636962  .00014086  00000+0  42716-3 0  9994","line2":"2 69517  53.1571 232.5151 0001438  80.2385 279.8780 15.34404988 16669","mean_motion":15.34404988,"eccentricity":0.0001438,"inclination_deg":53.1571,"raan_deg":232.5151,"arg_perigee_deg":80.2385,"mean_anomaly_deg":279.878,"bstar":0.00042716,"rev_number":1666,"period_min":93.847453003718,"perigee_km":461.70470416544,"apogee_km":463.67212555475,"semimajor_km":6840.8254148601,"source":"CELESTRAK","updated_at":"2026-09-20T09:00:44.212187Z"}}